TimeCDT,TemperatureF,Dew PointF,Humidity,Sea Level PressureIn,VisibilityMPH,Wind Direction,Wind SpeedMPH,Gust SpeedMPH,PrecipitationIn,Events,Conditions,WindDirDegrees,DateUTC
12:53 AM,79.0,66.0,64,29.67,10.0,South,13.8,-,N/A,,Clear,180,2013-05-20 05:53:00
1:53 AM,79.0,66.9,66,29.66,10.0,South,17.3,-,N/A,,Clear,190,2013-05-20 06:53:00
3:53 AM,75.9,68.0,76,29.67,10.0,South,10.4,-,N/A,,Clear,190,2013-05-20 08:53:00
4:53 AM,75.0,68.0,79,29.68,10.0,South,10.4,-,N/A,,Clear,190,2013-05-20 09:53:00
5:53 AM,73.9,68.0,82,29.71,10.0,South,5.8,-,N/A,,Mostly Cloudy,180,2013-05-20 10:53:00
6:53 AM,73.9,68.0,82,29.72,10.0,South,8.1,-,N/A,,Overcast,170,2013-05-20 11:53:00
7:53 AM,75.0,68.0,79,29.73,10.0,South,11.5,-,N/A,,Overcast,180,2013-05-20 12:53:00
8:53 AM,75.0,69.1,82,29.76,9.0,SSE,4.6,-,N/A,,Overcast,160,2013-05-20 13:53:00
9:53 AM,75.0,69.1,82,29.77,8.0,South,6.9,-,N/A,,Overcast,180,2013-05-20 14:53:00
10:53 AM,75.0,69.1,82,29.77,7.0,South,5.8,-,N/A,,Overcast,190,2013-05-20 15:53:00
11:53 AM,75.9,69.1,79,29.76,8.0,South,8.1,-,N/A,,Overcast,180,2013-05-20 16:53:00
12:42 PM,77.0,69.8,78,29.73,8.0,South,6.9,-,N/A,,Overcast,170,2013-05-20 17:42:00
12:53 PM,79.0,70.0,74,29.74,9.0,SSE,8.1,-,N/A,,Mostly Cloudy,160,2013-05-20 17:53:00
1:53 PM,84.0,70.0,63,29.72,10.0,South,13.8,-,N/A,,Scattered Clouds,190,2013-05-20 18:53:00
2:53 PM,86.0,71.1,61,29.69,10.0,South,12.7,-,N/A,,Mostly Cloudy,180,2013-05-20 19:53:00
3:53 PM,81.0,70.0,69,29.68,9.0,South,15.0,-,N/A,,Mostly Cloudy,180,2013-05-20 20:53:00
4:53 PM,79.0,70.0,74,29.68,8.0,South,13.8,-,N/A,,Partly Cloudy,190,2013-05-20 21:53:00
5:42 PM,78.8,71.6,78,29.67,7.0,South,17.3,-,0.00,Rain-Thunderstorm,Light Rain,190,2013-05-20 22:42:00
5:53 PM,77.0,71.1,82,29.65,6.0,South,15.0,-,0.00,Rain-Thunderstorm,Light Thunderstorms and Rain,180,2013-05-20 22:53:00
6:16 PM,77.0,71.6,83,29.66,7.0,SW,4.6,-,0.00,,Partly Cloudy,230,2013-05-20 23:16:00
6:53 PM,75.9,71.1,85,29.66,7.0,Calm,Calm,-,0.00,,Clear,0,2013-05-20 23:53:00
7:53 PM,75.0,69.1,82,29.67,9.0,North,5.8,-,N/A,,Partly Cloudy,350,2013-05-21 00:53:00
9:53 PM,73.9,69.1,85,29.75,10.0,Calm,Calm,-,N/A,,Partly Cloudy,0,2013-05-21 02:53:00
10:53 PM,72.0,68.0,87,29.75,9.0,West,3.5,-,N/A,Thunderstorm,Partly Cloudy,280,2013-05-21 03:53:00
11:32 PM,73.4,62.6,69,29.76,10.0,South,4.6,-,N/A,,Mostly Cloudy,170,2013-05-21 04:32:00
11:53 PM,70.0,64.0,81,29.78,10.0,Calm,Calm,-,N/A,,Scattered Clouds,0,2013-05-21 04:53:00